Shelton, WA
on Saturday, January 5, 2013

Saturday
Previous Day Next Day
Daily Summary
 ActualAverage (KOLM)Record (KOLM)
Temperature
Mean Temperature °F 39°F  
Max Temperature 43°F 45°F 53°F (1956)
Min Temperature 37°F 34°F 4°F (1979)
Degree Days
Heating Degree Days 25 26  
Month to date heating degree days 130  
Since 1 July heating degree days 2400  
Cooling Degree Days 0 0  
Month to date cooling degree days 0  
Year to date cooling degree days 0  
Moisture
Dew Point 39°F   
Average Humidity 97    
Maximum Humidity 100    
Minimum Humidity 93    
Precipitation
Precipitation 0.11 in 0.26 in 1.95 in (1954)
Month to date precipitation 1.27  
Year to date precipitation 1.27  
Wind
Wind Speed 2 mph   
Max Wind Speed 9 mph   
Max Gust Speed mph   
Visibility 9 miles   
Events Rain   

Key: T is trace of precipitation, MM is missing value
Source: NWS Daily Summary
Time(PST)TemperatureDew PointHumidity Pressure Visibility Wind DirectionWind SpeedGust SpeedPrecipitationEvents Conditions
12:16 AM 37.4°F 37.4°F 100% 30.14 in 4.0 miles Calm Calm - N/A   Overcast
12:31 AM 37.4°F 37.4°F 100% 30.14 in 8.0 miles Calm Calm - N/A   Overcast
12:43 AM 37.4°F 37.4°F 100% 30.14 in 4.0 miles Calm Calm - N/A   Overcast
12:53 AM 37.0°F 37.0°F 100% 30.16 in 4.0 miles Calm Calm - N/A   Overcast
1:03 AM 37.4°F 37.4°F 100% 30.14 in 8.0 miles Calm Calm - N/A   Overcast
1:53 AM 37.0°F 37.0°F 100% 30.16 in 10.0 miles Calm Calm - N/A   Overcast
2:30 AM 37.4°F 37.4°F 100% 30.14 in 10.0 miles Calm Calm - N/A   Overcast
2:53 AM 37.0°F 37.0°F 100% 30.16 in 10.0 miles Variable 3.5 mph - N/A   Overcast
3:03 AM 37.4°F 37.4°F 100% 30.15 in 10.0 miles SW 4.6 mph - N/A   Overcast
3:53 AM 37.0°F 37.0°F 100% 30.16 in 10.0 miles Calm Calm - N/A   Overcast
4:53 AM 37.9°F 37.9°F 100% 30.16 in 10.0 miles Calm Calm - N/A   Overcast
5:53 AM 39.9°F 39.9°F 100% 30.12 in 10.0 miles NNE 5.8 mph - 0.01 in Rain Light Rain
6:53 AM 39.0°F 39.0°F 100% 30.14 in 10.0 miles Calm Calm - 0.01 in Rain Light Rain
7:29 AM 39.2°F 39.2°F 100% 30.12 in 10.0 miles East 6.9 mph - 0.00 in Rain Light Rain
7:53 AM 39.9°F 39.9°F 100% 30.16 in 10.0 miles Calm Calm - 0.00 in   Overcast
8:53 AM 39.9°F 39.9°F 100% 30.17 in 10.0 miles NNE 5.8 mph - 0.01 in   Overcast
9:45 AM 41.0°F 39.2°F 93% 30.17 in 10.0 miles North 5.8 mph - N/A   Overcast
9:53 AM 41.0°F 39.9°F 96% 30.18 in 10.0 miles NNE 4.6 mph - N/A   Overcast
10:53 AM 42.1°F 41.0°F 96% 30.18 in 10.0 miles NNE 3.5 mph - N/A   Mostly Cloudy
11:53 AM 42.1°F 41.0°F 96% 30.17 in 10.0 miles North 3.5 mph - N/A   Overcast
12:53 PM 43.0°F 41.0°F 93% 30.14 in 10.0 miles North 4.6 mph - N/A   Overcast
1:53 PM 43.0°F 41.0°F 93% 30.13 in 10.0 miles Calm Calm - N/A   Overcast
2:53 PM 43.0°F 41.0°F 93% 30.13 in 10.0 miles Calm Calm - N/A   Overcast
3:53 PM 43.0°F 42.1°F 97% 30.13 in 10.0 miles Calm Calm - N/A   Overcast
4:53 PM 42.1°F 41.0°F 96% 30.11 in 10.0 miles Calm Calm - N/A   Overcast
5:02 PM 39.2°F 39.2°F 100% 30.10 in 10.0 miles Calm Calm - N/A   Overcast
5:53 PM 39.9°F 39.9°F 100% 30.11 in 8.0 miles Calm Calm - N/A   Overcast
6:53 PM 39.9°F 39.9°F 100% 30.12 in 10.0 miles Calm Calm - 0.04 in Rain Light Rain
7:19 PM 39.2°F 39.2°F 100% 30.10 in 10.0 miles Calm Calm - 0.01 in Rain Light Rain
7:26 PM 39.2°F 39.2°F 100% 30.11 in 10.0 miles Calm Calm - 0.02 in Rain Light Rain
7:41 PM 41.0°F 39.2°F 93% 30.11 in 10.0 miles Calm Calm - 0.02 in Rain Light Rain
7:53 PM 41.0°F 39.9°F 96% 30.12 in 10.0 miles Calm Calm - 0.02 in Rain Light Rain
8:22 PM 41.0°F 39.2°F 93% 30.11 in 10.0 miles WSW 6.9 mph - 0.01 in Rain Light Rain
8:53 PM 39.9°F 39.0°F 97% 30.12 in 10.0 miles Calm Calm - 0.02 in Rain Light Rain
9:48 PM 41.0°F 39.2°F 93% 30.11 in 10.0 miles WSW 5.8 mph - 0.00 in   Overcast
9:53 PM 41.0°F 39.9°F 96% 30.13 in 10.0 miles WSW 5.8 mph - 0.00 in   Overcast
9:56 PM 41.0°F 39.2°F 93% 30.11 in 10.0 miles SW 4.6 mph - N/A   Overcast
10:29 PM 41.0°F 39.2°F 93% 30.12 in 10.0 miles SW 9.2 mph - N/A   Overcast
10:53 PM 39.9°F 39.0°F 97% 30.13 in 10.0 miles WSW 4.6 mph - N/A   Mostly Cloudy
11:11 PM 39.2°F 37.4°F 93% 30.13 in 10.0 miles WSW 3.5 mph - N/A   Mostly Cloudy
11:25 PM 39.2°F 39.2°F 100% 30.13 in 10.0 miles SW 3.5 mph - N/A   Mostly Cloudy
11:53 PM 39.9°F 39.0°F 97% 30.14 in 10.0 miles SSW 6.9 mph - N/A   Overcast
Moon Phase
Jan. 05 Jan. 11 Jan. 18 Jan. 26 Feb. 03
Sunrise:07:58 AM (PST) Moon Rise:12:57 AM (PST)1/5
Sunset:04:37 PM (PST) Moon Set:11:42 AM (PST)1/5

Copyright © 2014 The Weather Underground, Inc.